Time,TemperatureF,DewpointF,PressureIn,WindDirection,WindDirectionDegrees,WindSpeedMPH,WindSpeedGustMPH,Humidity,HourlyPrecipIn,Conditions,Clouds,dailyrainin,SoftwareType,DateUTC
2013-01-12 00:03:00,46.5,44.0,29.87,South,177,0.0,5.0,91,0.00,,,0.00,weatherlink.com 1.10,2013-01-12 05:03:00,
2013-01-12 00:18:00,46.6,44.0,29.86,SSE,158,0.0,3.0,91,0.00,,,0.00,weatherlink.com 1.10,2013-01-12 05:18:00,
2013-01-12 00:24:00,46.7,44.2,29.86,SSE,161,1.0,1.0,91,0.00,,SKC,0.00,VWS V14.01,2013-01-12 05:24:00,
2013-01-12 00:29:00,46.6,44.1,29.85,SSE,155,2.0,3.0,91,0.00,,SKC,0.00,VWS V14.01,2013-01-12 05:29:00,
2013-01-12 00:30:00,46.6,44.1,29.85,SSE,164,1.0,2.0,91,0.00,,SKC,0.00,VWS V14.01,2013-01-12 05:30:00,
2013-01-12 00:34:00,46.3,43.5,29.85,South,172,1.0,3.0,90,0.00,,SKC,0.00,VWS V14.01,2013-01-12 05:34:00,
2013-01-12 00:39:00,46.6,44.1,29.85,South,169,2.0,4.0,91,0.00,,SKC,0.00,VWS V14.01,2013-01-12 05:39:00,
2013-01-12 00:44:00,46.9,44.1,29.85,South,177,3.0,5.0,90,0.00,,SKC,0.00,VWS V14.01,2013-01-12 05:44:00,
2013-01-12 00:49:00,47.2,44.4,29.85,SSW,213,13.0,13.0,90,0.00,,SKC,0.00,VWS V14.01,2013-01-12 05:49:00,
2013-01-12 00:54:00,48.0,45.2,29.85,South,188,4.0,11.0,90,0.00,,SKC,0.00,VWS V14.01,2013-01-12 05:54:00,
2013-01-12 00:59:00,49.1,46.0,29.85,South,177,5.0,11.0,89,0.00,,SKC,0.00,VWS V14.01,2013-01-12 05:59:00,
2013-01-12 01:00:00,49.3,46.2,29.85,South,175,2.0,10.0,89,0.00,,SKC,0.00,VWS V14.01,2013-01-12 06:00:00,
2013-01-12 01:05:00,49.5,45.8,29.85,SSW,206,12.0,12.0,87,0.00,,SKC,0.00,VWS V14.01,2013-01-12 06:05:00,
2013-01-12 01:10:00,49.5,45.5,29.85,SSW,194,5.0,8.0,86,0.00,,SKC,0.00,VWS V14.01,2013-01-12 06:10:00,
2013-01-12 01:15:00,49.1,45.1,29.85,South,190,7.0,7.0,86,0.00,,SKC,0.00,VWS V14.01,2013-01-12 06:15:00,
2013-01-12 01:20:00,48.6,44.6,29.85,South,186,1.0,6.0,86,0.00,,SKC,0.00,VWS V14.01,2013-01-12 06:20:00,
2013-01-12 01:25:00,48.4,44.7,29.85,SW,221,4.0,7.0,87,0.00,,SKC,0.00,VWS V14.01,2013-01-12 06:25:00,
2013-01-12 01:30:00,48.4,44.7,29.85,SSW,212,2.0,10.0,87,0.00,,SKC,0.00,VWS V14.01,2013-01-12 06:30:00,
2013-01-12 01:35:00,48.4,44.7,29.85,SSW,197,4.0,7.0,87,0.00,,SKC,0.00,VWS V14.01,2013-01-12 06:35:00,
2013-01-12 01:40:00,48.5,44.8,29.85,SW,219,2.0,6.0,87,0.00,,SKC,0.00,VWS V14.01,2013-01-12 06:40:00,
2013-01-12 01:45:00,48.6,44.9,29.85,SSW,198,6.0,8.0,87,0.00,,SKC,0.00,VWS V14.01,2013-01-12 06:45:00,
2013-01-12 01:50:00,48.8,45.1,29.85,SSW,199,8.0,8.0,87,0.00,,SKC,0.00,VWS V14.01,2013-01-12 06:50:00,
2013-01-12 01:55:00,48.9,44.9,29.85,SSW,199,2.0,6.0,86,0.00,,SKC,0.00,VWS V14.01,2013-01-12 06:55:00,
2013-01-12 02:00:00,48.9,44.9,29.85,SSW,209,3.0,5.0,86,0.00,,SKC,0.00,VWS V14.01,2013-01-12 07:00:00,
2013-01-12 02:05:00,48.8,44.8,29.86,SSW,202,4.0,4.0,86,0.00,,SKC,0.00,VWS V14.01,2013-01-12 07:05:00,
2013-01-12 02:10:00,48.8,44.8,29.86,SW,218,5.0,8.0,86,0.00,,SKC,0.00,VWS V14.01,2013-01-12 07:10:00,
2013-01-12 02:15:00,48.9,44.9,29.86,SW,225,4.0,5.0,86,0.00,,SKC,0.00,VWS V14.01,2013-01-12 07:15:00,
2013-01-12 02:20:00,49.0,45.0,29.87,South,187,0.0,5.0,86,0.00,,SKC,0.00,VWS V14.01,2013-01-12 07:20:00,
2013-01-12 02:25:00,48.9,44.9,29.87,SSW,204,6.0,7.0,86,0.00,,SKC,0.00,VWS V14.01,2013-01-12 07:25:00,
2013-01-12 02:30:00,48.9,44.9,29.88,SSW,198,5.0,7.0,86,0.00,,SKC,0.00,VWS V14.01,2013-01-12 07:30:00,
2013-01-12 02:35:00,48.7,44.7,29.87,SW,219,2.0,5.0,86,0.00,,SKC,0.00,VWS V14.01,2013-01-12 07:35:00,
2013-01-12 02:40:00,48.5,44.5,29.88,SSW,209,3.0,5.0,86,0.00,,SKC,0.00,VWS V14.01,2013-01-12 07:40:00,
2013-01-12 02:45:00,48.5,44.5,29.88,SSW,205,6.0,9.0,86,0.00,,SKC,0.00,VWS V14.01,2013-01-12 07:45:00,
2013-01-12 02:51:00,48.6,44.6,29.88,South,187,3.0,6.0,86,0.00,,SKC,0.00,VWS V14.01,2013-01-12 07:51:00,
2013-01-12 02:56:00,48.9,44.9,29.88,SW,220,6.0,7.0,86,0.00,,SKC,0.00,VWS V14.01,2013-01-12 07:56:00,
2013-01-12 03:00:00,49.1,45.1,29.88,SSW,200,3.0,6.0,86,0.00,,SKC,0.00,VWS V14.01,2013-01-12 08:00:00,
2013-01-12 03:01:00,49.1,45.1,29.88,SSW,194,2.0,6.0,86,0.00,,SKC,0.00,VWS V14.01,2013-01-12 08:01:00,
2013-01-12 03:06:00,49.1,44.8,29.88,South,179,2.0,4.0,85,0.00,,SKC,0.00,VWS V14.01,2013-01-12 08:06:00,
2013-01-12 03:11:00,48.7,44.4,29.88,SSW,194,5.0,6.0,85,0.00,,SKC,0.00,VWS V14.01,2013-01-12 08:11:00,
2013-01-12 03:16:00,48.5,44.2,29.89,South,190,4.0,4.0,85,0.00,,SKC,0.00,VWS V14.01,2013-01-12 08:16:00,
2013-01-12 03:21:00,48.6,44.6,29.89,South,183,2.0,8.0,86,0.00,,SKC,0.00,VWS V14.01,2013-01-12 08:21:00,
2013-01-12 03:26:00,48.3,44.3,29.89,South,188,1.0,7.0,86,0.00,,SKC,0.00,VWS V14.01,2013-01-12 08:26:00,
2013-01-12 03:30:00,47.4,43.4,29.88,South,184,1.0,5.0,86,0.00,,SKC,0.00,VWS V14.01,2013-01-12 08:30:00,
2013-01-12 03:31:00,47.4,43.4,29.88,South,188,4.0,5.0,86,0.00,,SKC,0.00,VWS V14.01,2013-01-12 08:31:00,
2013-01-12 03:36:00,46.7,42.7,29.89,South,175,1.0,2.0,86,0.00,,SKC,0.00,VWS V14.01,2013-01-12 08:36:00,
2013-01-12 03:41:00,46.3,42.7,29.89,South,178,1.0,5.0,87,0.00,,SKC,0.00,VWS V14.01,2013-01-12 08:41:00,
2013-01-12 03:46:00,46.0,42.7,29.89,South,181,2.0,6.0,88,0.00,,SKC,0.00,VWS V14.01,2013-01-12 08:46:00,
2013-01-12 03:51:00,45.9,42.5,29.89,South,178,3.0,3.0,88,0.00,,SKC,0.00,VWS V14.01,2013-01-12 08:51:00,
2013-01-12 03:56:00,45.6,42.3,29.89,South,172,2.0,3.0,88,0.00,,SKC,0.00,VWS V14.01,2013-01-12 08:56:00,
2013-01-12 04:00:00,45.6,42.5,29.88,South,176,1.0,2.0,89,0.00,,SKC,0.00,VWS V14.01,2013-01-12 09:00:00,
2013-01-12 04:01:00,45.6,42.5,29.88,South,175,2.0,3.0,89,0.00,,SKC,0.00,VWS V14.01,2013-01-12 09:01:00,
2013-01-12 04:06:00,45.6,42.5,29.89,South,171,1.0,2.0,89,0.00,,SKC,0.00,VWS V14.01,2013-01-12 09:06:00,
2013-01-12 04:11:00,45.4,42.3,29.89,SSE,167,0.0,1.0,89,0.00,,SKC,0.00,VWS V14.01,2013-01-12 09:11:00,
2013-01-12 04:16:00,45.0,42.0,29.88,SSE,167,0.0,0.0,89,0.00,,SKC,0.00,VWS V14.01,2013-01-12 09:16:00,
2013-01-12 04:21:00,45.0,42.0,29.88,SSE,167,0.0,1.0,89,0.00,,SKC,0.00,VWS V14.01,2013-01-12 09:21:00,
2013-01-12 04:26:00,44.7,41.7,29.88,South,169,0.0,1.0,89,0.00,,SKC,0.00,VWS V14.01,2013-01-12 09:26:00,
2013-01-12 04:30:00,44.4,41.7,29.88,South,170,0.0,1.0,90,0.00,,SKC,0.00,VWS V14.01,2013-01-12 09:30:00,
2013-01-12 04:31:00,44.4,41.7,29.88,South,170,0.0,1.0,90,0.00,,SKC,0.00,VWS V14.01,2013-01-12 09:31:00,
2013-01-12 04:36:00,44.5,41.8,29.88,SSE,166,1.0,2.0,90,0.00,,SKC,0.00,VWS V14.01,2013-01-12 09:36:00,
2013-01-12 04:41:00,44.3,41.6,29.88,South,170,1.0,1.0,90,0.00,,SKC,0.00,VWS V14.01,2013-01-12 09:41:00,
2013-01-12 04:46:00,44.4,41.7,29.88,SSE,166,0.0,2.0,90,0.00,,SKC,0.00,VWS V14.01,2013-01-12 09:46:00,
2013-01-12 04:51:00,44.6,42.1,29.88,SSE,166,0.0,0.0,91,0.00,,SKC,0.00,VWS V14.01,2013-01-12 09:51:00,
2013-01-12 04:57:00,44.6,42.1,29.87,SSE,164,0.0,2.0,91,0.00,,SKC,0.00,VWS V14.01,2013-01-12 09:57:00,
2013-01-12 05:00:00,44.3,41.6,29.88,SSE,167,0.0,1.0,90,0.00,,SKC,0.00,VWS V14.01,2013-01-12 10:00:00,
2013-01-12 05:02:00,44.3,41.8,29.87,South,170,0.0,1.0,91,0.00,,SKC,0.00,VWS V14.01,2013-01-12 10:02:00,
2013-01-12 05:07:00,44.4,41.9,29.87,South,180,1.0,2.0,91,0.00,,SKC,0.00,VWS V14.01,2013-01-12 10:07:00,
2013-01-12 05:12:00,44.5,42.0,29.87,SSE,167,1.0,1.0,91,0.00,,SKC,0.00,VWS V14.01,2013-01-12 10:12:00,
2013-01-12 05:17:00,44.6,42.1,29.87,South,171,0.0,1.0,91,0.00,,SKC,0.00,VWS V14.01,2013-01-12 10:17:00,
2013-01-12 05:22:00,44.6,42.1,29.87,South,169,1.0,1.0,91,0.00,,SKC,0.00,VWS V14.01,2013-01-12 10:22:00,
2013-01-12 05:27:00,44.4,41.9,29.86,South,171,0.0,1.0,91,0.00,,SKC,0.00,VWS V14.01,2013-01-12 10:27:00,
2013-01-12 05:30:00,44.2,41.7,29.87,South,172,1.0,1.0,91,0.00,,SKC,0.00,VWS V14.01,2013-01-12 10:30:00,
2013-01-12 05:32:00,44.2,41.7,29.87,SSE,167,0.0,2.0,91,0.00,,SKC,0.00,VWS V14.01,2013-01-12 10:32:00,
2013-01-12 05:37:00,44.3,41.8,29.87,South,173,0.0,2.0,91,0.00,,SKC,0.00,VWS V14.01,2013-01-12 10:37:00,
2013-01-12 05:42:00,44.2,41.7,29.88,South,170,0.0,1.0,91,0.00,,SKC,0.00,VWS V14.01,2013-01-12 10:42:00,
2013-01-12 05:47:00,43.9,41.5,29.88,South,169,1.0,3.0,91,0.00,,SKC,0.00,VWS V14.01,2013-01-12 10:47:00,
2013-01-12 05:52:00,43.9,41.5,29.88,South,178,1.0,2.0,91,0.00,,SKC,0.00,VWS V14.01,2013-01-12 10:52:00,
2013-01-12 05:57:00,44.0,41.8,29.88,SSE,167,2.0,3.0,92,0.00,,SKC,0.00,VWS V14.01,2013-01-12 10:57:00,
2013-01-12 06:00:00,44.1,41.9,29.88,SSE,167,0.0,3.0,92,0.00,,SKC,0.00,VWS V14.01,2013-01-12 11:00:00,
2013-01-12 06:02:00,44.1,41.9,29.88,SSE,166,0.0,3.0,92,0.00,,SKC,0.00,VWS V14.01,2013-01-12 11:02:00,
2013-01-12 06:07:00,43.8,41.6,29.88,SSE,162,1.0,2.0,92,0.00,,SKC,0.00,VWS V14.01,2013-01-12 11:07:00,
2013-01-12 06:12:00,43.6,41.4,29.88,South,172,0.0,2.0,92,0.00,,SKC,0.00,VWS V14.01,2013-01-12 11:12:00,
2013-01-12 06:17:00,43.7,41.5,29.88,South,171,1.0,3.0,92,0.00,,SKC,0.00,VWS V14.01,2013-01-12 11:17:00,
2013-01-12 06:22:00,43.9,41.7,29.88,South,175,3.0,3.0,92,0.00,,SKC,0.00,VWS V14.01,2013-01-12 11:22:00,
2013-01-12 06:27:00,44.0,41.8,29.88,South,175,1.0,5.0,92,0.00,,SKC,0.00,VWS V14.01,2013-01-12 11:27:00,
2013-01-12 06:30:00,44.0,41.8,29.88,South,174,0.0,4.0,92,0.00,,SKC,0.00,VWS V14.01,2013-01-12 11:30:00,
2013-01-12 06:32:00,44.0,41.8,29.88,South,184,2.0,4.0,92,0.00,,SKC,0.00,VWS V14.01,2013-01-12 11:32:00,
2013-01-12 06:37:00,43.9,41.7,29.89,South,183,3.0,4.0,92,0.00,,SKC,0.00,VWS V14.01,2013-01-12 11:37:00,
2013-01-12 06:42:00,43.8,41.6,29.89,South,184,1.0,5.0,92,0.00,,SKC,0.00,VWS V14.01,2013-01-12 11:42:00,
2013-01-12 06:47:00,43.7,41.5,29.89,South,180,2.0,2.0,92,0.00,,SKC,0.00,VWS V14.01,2013-01-12 11:47:00,
2013-01-12 06:52:00,43.9,41.7,29.89,SSE,167,0.0,2.0,92,0.00,,SKC,0.00,VWS V14.01,2013-01-12 11:52:00,
2013-01-12 06:57:00,43.7,41.5,29.89,South,182,3.0,3.0,92,0.00,,SKC,0.00,VWS V14.01,2013-01-12 11:57:00,
2013-01-12 07:00:00,43.8,41.6,29.90,South,180,2.0,5.0,92,0.00,,SKC,0.00,VWS V14.01,2013-01-12 12:00:00,
2013-01-12 07:02:00,43.8,41.6,29.89,South,175,0.0,5.0,92,0.00,,SKC,0.00,VWS V14.01,2013-01-12 12:02:00,
2013-01-12 07:07:00,43.6,41.4,29.90,South,177,1.0,4.0,92,0.00,,SKC,0.00,VWS V14.01,2013-01-12 12:07:00,
2013-01-12 07:12:00,43.7,41.5,29.90,South,175,1.0,1.0,92,0.00,,SKC,0.00,VWS V14.01,2013-01-12 12:12:00,
2013-01-12 07:17:00,43.8,41.9,29.90,South,178,1.0,1.0,93,0.00,,SKC,0.00,VWS V14.01,2013-01-12 12:17:00,
2013-01-12 07:22:00,43.9,42.0,29.90,South,180,0.0,2.0,93,0.00,,SKC,0.00,VWS V14.01,2013-01-12 12:22:00,
2013-01-12 07:27:00,44.0,42.1,29.89,South,175,0.0,2.0,93,0.00,,SKC,0.00,VWS V14.01,2013-01-12 12:27:00,
2013-01-12 07:30:00,44.3,42.4,29.89,South,172,1.0,2.0,93,0.00,,SKC,0.00,VWS V14.01,2013-01-12 12:30:00,
2013-01-12 07:32:00,44.3,42.4,29.90,South,174,2.0,2.0,93,0.00,,SKC,0.00,VWS V14.01,2013-01-12 12:32:00,
2013-01-12 07:37:00,44.3,42.4,29.90,South,175,1.0,2.0,93,0.00,,SKC,0.00,VWS V14.01,2013-01-12 12:37:00,
2013-01-12 07:42:00,45.3,43.4,29.90,South,178,3.0,5.0,93,0.00,,SKC,0.00,VWS V14.01,2013-01-12 12:42:00,
2013-01-12 07:47:00,46.3,44.4,29.91,SSW,196,3.0,5.0,93,0.00,,SKC,0.00,VWS V14.01,2013-01-12 12:47:00,
2013-01-12 07:52:00,47.2,45.6,29.91,SSW,196,5.0,7.0,94,0.00,,SKC,0.00,VWS V14.01,2013-01-12 12:52:00,
2013-01-12 07:57:00,47.4,45.5,29.92,SSW,196,6.0,7.0,93,0.00,,SKC,0.00,VWS V14.01,2013-01-12 12:57:00,
2013-01-12 08:00:00,47.4,45.5,29.92,SSW,198,7.0,7.0,93,0.00,,SKC,0.00,VWS V14.01,2013-01-12 13:00:00,
2013-01-12 08:02:00,47.4,45.5,29.92,South,188,3.0,7.0,93,0.00,,SKC,0.00,VWS V14.01,2013-01-12 13:02:00,
2013-01-12 08:07:00,47.7,45.8,29.92,SW,215,4.0,6.0,93,0.00,,SKC,0.00,VWS V14.01,2013-01-12 13:07:00,
2013-01-12 08:12:00,47.9,46.0,29.93,South,175,1.0,6.0,93,0.00,,SKC,0.00,VWS V14.01,2013-01-12 13:12:00,
2013-01-12 08:18:00,48.2,46.3,29.92,SSW,202,6.0,7.0,93,0.00,,SKC,0.00,VWS V14.01,2013-01-12 13:18:00,
2013-01-12 08:23:00,48.5,46.6,29.93,SW,219,3.0,8.0,93,0.00,,SKC,0.00,VWS V14.01,2013-01-12 13:23:00,
2013-01-12 08:28:00,48.6,46.7,29.93,SSW,200,4.0,7.0,93,0.00,,SKC,0.00,VWS V14.01,2013-01-12 13:28:00,
2013-01-12 08:30:00,48.7,46.8,29.93,WSW,237,6.0,7.0,93,0.00,,SKC,0.00,VWS V14.01,2013-01-12 13:30:00,
2013-01-12 08:33:00,48.8,46.6,29.93,SSW,207,2.0,7.0,92,0.00,,SKC,0.00,VWS V14.01,2013-01-12 13:33:00,
2013-01-12 08:38:00,48.8,46.6,29.93,SSW,205,1.0,5.0,92,0.00,,SKC,0.00,VWS V14.01,2013-01-12 13:38:00,
2013-01-12 08:43:00,49.0,46.8,29.93,SSW,193,3.0,5.0,92,0.00,,SKC,0.00,VWS V14.01,2013-01-12 13:43:00,
2013-01-12 08:48:00,49.4,47.2,29.93,SSW,198,3.0,6.0,92,0.00,,SKC,0.00,VWS V14.01,2013-01-12 13:48:00,
2013-01-12 08:53:00,49.8,47.6,29.93,SW,219,2.0,6.0,92,0.00,,SKC,0.00,VWS V14.01,2013-01-12 13:53:00,
2013-01-12 08:58:00,50.3,48.1,29.93,South,180,2.0,5.0,92,0.00,,SKC,0.00,VWS V14.01,2013-01-12 13:58:00,
2013-01-12 09:00:00,50.6,48.4,29.94,SSW,211,4.0,7.0,92,0.00,,SKC,0.00,VWS V14.01,2013-01-12 14:00:00,
2013-01-12 09:03:00,50.7,48.5,29.94,SSW,209,3.0,6.0,92,0.00,,SKC,0.00,VWS V14.01,2013-01-12 14:03:00,
2013-01-12 09:08:00,51.0,48.5,29.94,SSW,209,5.0,8.0,91,0.00,,SKC,0.00,VWS V14.01,2013-01-12 14:08:00,
2013-01-12 09:13:00,51.0,48.5,29.94,South,191,5.0,9.0,91,0.00,,SKC,0.00,VWS V14.01,2013-01-12 14:13:00,
2013-01-12 09:18:00,51.0,48.5,29.94,South,182,1.0,5.0,91,0.00,,SKC,0.00,VWS V14.01,2013-01-12 14:18:00,
2013-01-12 09:23:00,51.0,48.5,29.94,SSW,203,6.0,9.0,91,0.00,,SKC,0.00,VWS V14.01,2013-01-12 14:23:00,
2013-01-12 09:28:00,51.2,48.7,29.94,SW,218,8.0,8.0,91,0.00,,SKC,0.00,VWS V14.01,2013-01-12 14:28:00,
2013-01-12 09:30:00,51.4,48.9,29.94,South,191,4.0,9.0,91,0.00,,SKC,0.00,VWS V14.01,2013-01-12 14:30:00,
2013-01-12 09:33:00,51.4,48.6,29.94,South,186,5.0,11.0,90,0.00,,SKC,0.00,VWS V14.01,2013-01-12 14:33:00,
2013-01-12 09:38:00,51.5,48.7,29.94,SSW,202,7.0,8.0,90,0.00,,SKC,0.00,VWS V14.01,2013-01-12 14:38:00,
2013-01-12 09:43:00,51.8,49.0,29.95,SSW,205,6.0,6.0,90,0.00,,SKC,0.00,VWS V14.01,2013-01-12 14:43:00,
2013-01-12 09:48:00,51.9,49.1,29.95,SSW,204,7.0,7.0,90,0.00,,SKC,0.00,VWS V14.01,2013-01-12 14:48:00,
2013-01-12 09:53:00,52.1,49.3,29.95,South,186,6.0,9.0,90,0.00,,SKC,0.00,VWS V14.01,2013-01-12 14:53:00,
2013-01-12 09:58:00,52.2,49.4,29.95,SSW,211,3.0,6.0,90,0.00,,SKC,0.00,VWS V14.01,2013-01-12 14:58:00,
2013-01-12 10:00:00,52.3,49.5,29.96,South,173,7.0,7.0,90,0.00,,SKC,0.00,VWS V14.01,2013-01-12 15:00:00,
2013-01-12 10:03:00,52.3,49.5,29.96,SW,230,5.0,8.0,90,0.00,,SKC,0.00,VWS V14.01,2013-01-12 15:03:00,
2013-01-12 10:08:00,52.3,49.5,29.97,SW,219,7.0,7.0,90,0.00,,SKC,0.00,VWS V14.01,2013-01-12 15:08:00,
2013-01-12 10:13:00,52.1,49.3,29.96,SSW,206,5.0,7.0,90,0.00,,SKC,0.00,VWS V14.01,2013-01-12 15:13:00,
2013-01-12 10:18:00,52.1,49.3,29.97,SSW,207,4.0,7.0,90,0.00,,SKC,0.00,VWS V14.01,2013-01-12 15:18:00,
2013-01-12 10:23:00,52.2,49.4,29.97,SSW,192,7.0,7.0,90,0.00,,SKC,0.00,VWS V14.01,2013-01-12 15:23:00,
2013-01-12 10:28:00,52.6,49.8,29.96,South,173,6.0,6.0,90,0.00,,SKC,0.00,VWS V14.01,2013-01-12 15:28:00,
2013-01-12 10:30:00,52.8,50.0,29.96,South,190,3.0,9.0,90,0.00,,SKC,0.00,VWS V14.01,2013-01-12 15:30:00,
2013-01-12 10:33:00,52.9,50.0,29.96,SSE,163,3.0,10.0,90,0.00,,SKC,0.00,VWS V14.01,2013-01-12 15:33:00,
2013-01-12 10:38:00,52.9,50.0,29.96,South,183,4.0,8.0,90,0.00,,SKC,0.00,VWS V14.01,2013-01-12 15:38:00,
2013-01-12 10:43:00,52.9,50.0,29.95,South,170,1.0,4.0,90,0.00,,SKC,0.00,VWS V14.01,2013-01-12 15:43:00,
2013-01-12 10:48:00,53.2,50.3,29.95,South,173,1.0,8.0,90,0.00,,SKC,0.00,VWS V14.01,2013-01-12 15:48:00,
2013-01-12 10:53:00,53.5,50.3,29.95,South,185,5.0,5.0,89,0.00,,SKC,0.00,VWS V14.01,2013-01-12 15:53:00,
2013-01-12 10:58:00,53.6,50.4,29.95,SSE,160,4.0,16.0,89,0.00,,SKC,0.00,VWS V14.01,2013-01-12 15:58:00,
2013-01-12 11:00:00,53.7,50.5,29.95,South,188,7.0,11.0,89,0.00,,SKC,0.00,VWS V14.01,2013-01-12 16:00:00,
2013-01-12 11:03:00,53.7,50.5,29.95,South,188,5.0,10.0,89,0.00,,SKC,0.00,VWS V14.01,2013-01-12 16:03:00,
2013-01-12 11:08:00,54.0,50.8,29.95,SSE,163,2.0,7.0,89,0.00,,SKC,0.00,VWS V14.01,2013-01-12 16:08:00,
2013-01-12 11:13:00,54.8,51.6,29.94,South,178,4.0,5.0,89,0.00,,SKC,0.00,VWS V14.01,2013-01-12 16:13:00,
2013-01-12 11:18:00,55.1,51.9,29.94,South,190,5.0,15.0,89,0.00,,SKC,0.00,VWS V14.01,2013-01-12 16:18:00,
2013-01-12 11:23:00,55.5,52.3,29.94,South,171,3.0,8.0,89,0.00,,SKC,0.00,VWS V14.01,2013-01-12 16:23:00,
2013-01-12 11:28:00,56.1,52.6,29.94,South,190,5.0,9.0,88,0.00,,SKC,0.00,VWS V14.01,2013-01-12 16:28:00,
2013-01-12 11:30:00,56.2,52.7,29.94,South,182,8.0,9.0,88,0.00,,SKC,0.00,VWS V14.01,2013-01-12 16:30:00,
2013-01-12 11:34:00,56.2,52.7,29.94,SW,227,8.0,11.0,88,0.00,,SKC,0.00,VWS V14.01,2013-01-12 16:34:00,
2013-01-12 11:39:00,56.2,52.4,29.94,SSW,196,11.0,11.0,87,0.00,,SKC,0.00,VWS V14.01,2013-01-12 16:39:00,
2013-01-12 11:44:00,56.1,52.3,29.94,South,173,3.0,12.0,87,0.00,,SKC,0.00,VWS V14.01,2013-01-12 16:44:00,
2013-01-12 11:49:00,56.0,52.2,29.94,South,178,6.0,14.0,87,0.00,,SKC,0.00,VWS V14.01,2013-01-12 16:49:00,
2013-01-12 11:54:00,55.9,52.1,29.94,SSW,198,5.0,13.0,87,0.00,,SKC,0.00,VWS V14.01,2013-01-12 16:54:00,
2013-01-12 11:59:00,55.9,52.1,29.93,SW,224,11.0,18.0,87,0.00,,SKC,0.00,VWS V14.01,2013-01-12 16:59:00,
2013-01-12 12:00:00,55.9,52.4,29.94,SW,221,8.0,8.0,88,0.00,,SKC,0.00,VWS V14.01,2013-01-12 17:00:00,
2013-01-12 12:04:00,56.0,52.5,29.94,South,172,4.0,11.0,88,0.00,,SKC,0.00,VWS V14.01,2013-01-12 17:04:00,
2013-01-12 12:09:00,56.1,52.6,29.94,SW,219,6.0,8.0,88,0.00,,SKC,0.00,VWS V14.01,2013-01-12 17:09:00,
2013-01-12 12:14:00,56.0,52.5,29.94,South,191,5.0,9.0,88,0.00,,SKC,0.00,VWS V14.01,2013-01-12 17:14:00,
2013-01-12 12:19:00,56.1,52.6,29.93,SSW,200,5.0,7.0,88,0.00,,SKC,0.00,VWS V14.01,2013-01-12 17:19:00,
2013-01-12 12:24:00,56.2,52.7,29.94,South,188,3.0,7.0,88,0.00,,SKC,0.00,VWS V14.01,2013-01-12 17:24:00,
2013-01-12 12:29:00,56.5,53.0,29.94,SSW,200,8.0,11.0,88,0.00,,SKC,0.00,VWS V14.01,2013-01-12 17:29:00,
2013-01-12 12:30:00,56.6,53.1,29.94,SW,215,4.0,6.0,88,0.00,,SKC,0.00,VWS V14.01,2013-01-12 17:30:00,
2013-01-12 12:34:00,56.7,52.9,29.94,SW,224,5.0,10.0,87,0.00,,SKC,0.00,VWS V14.01,2013-01-12 17:34:00,
2013-01-12 12:39:00,57.0,53.2,29.94,SW,223,7.0,10.0,87,0.00,,SKC,0.00,VWS V14.01,2013-01-12 17:39:00,
2013-01-12 12:44:00,57.3,53.5,29.94,SW,236,13.0,13.0,87,0.00,,SKC,0.00,VWS V14.01,2013-01-12 17:44:00,
2013-01-12 12:49:00,57.5,53.3,29.92,SW,216,12.0,16.0,86,0.00,,SKC,0.00,VWS V14.01,2013-01-12 17:49:00,
2013-01-12 12:54:00,57.6,53.1,29.93,SSW,213,6.0,14.0,85,0.00,,SKC,0.00,VWS V14.01,2013-01-12 17:54:00,
2013-01-12 12:59:00,57.6,53.1,29.92,SW,232,7.0,12.0,85,0.00,,SKC,0.00,VWS V14.01,2013-01-12 17:59:00,
2013-01-12 13:00:00,57.8,53.3,29.93,SW,220,9.0,12.0,85,0.00,,SKC,0.00,VWS V14.01,2013-01-12 18:00:00,
2013-01-12 13:04:00,58.2,53.7,29.93,SW,236,9.0,13.0,85,0.00,,SKC,0.00,VWS V14.01,2013-01-12 18:04:00,
2013-01-12 13:09:00,59.0,54.2,29.93,SW,222,11.0,11.0,84,0.00,,SKC,0.00,VWS V14.01,2013-01-12 18:09:00,
2013-01-12 13:14:00,58.6,53.5,29.93,SW,226,12.0,14.0,83,0.00,,SKC,0.00,VWS V14.01,2013-01-12 18:14:00,
2013-01-12 13:19:00,58.4,53.3,29.93,SSW,197,10.0,13.0,83,0.00,,SKC,0.00,VWS V14.01,2013-01-12 18:19:00,
2013-01-12 13:24:00,58.2,53.4,29.92,SW,235,6.0,13.0,84,0.00,,SKC,0.00,VWS V14.01,2013-01-12 18:24:00,
2013-01-12 13:29:00,58.2,53.4,29.92,SW,230,10.0,13.0,84,0.00,,SKC,0.00,VWS V14.01,2013-01-12 18:29:00,
2013-01-12 13:30:00,58.2,53.4,29.93,SW,232,9.0,12.0,84,0.00,,SKC,0.00,VWS V14.01,2013-01-12 18:30:00,
2013-01-12 13:34:00,58.2,53.4,29.93,SSW,209,7.0,11.0,84,0.00,,SKC,0.00,VWS V14.01,2013-01-12 18:34:00,
2013-01-12 13:39:00,58.2,53.4,29.93,SW,217,8.0,10.0,84,0.00,,SKC,0.00,VWS V14.01,2013-01-12 18:39:00,
2013-01-12 13:44:00,58.5,53.7,29.93,SW,225,13.0,13.0,84,0.00,,SKC,0.00,VWS V14.01,2013-01-12 18:44:00,
2013-01-12 13:49:00,58.4,53.3,29.93,SSW,197,9.0,13.0,83,0.00,,SKC,0.00,VWS V14.01,2013-01-12 18:49:00,
2013-01-12 13:54:00,58.2,53.4,29.94,SW,220,8.0,11.0,84,0.00,,SKC,0.00,VWS V14.01,2013-01-12 18:54:00,
2013-01-12 13:59:00,58.2,53.4,29.94,WSW,244,8.0,10.0,84,0.00,,SKC,0.00,VWS V14.01,2013-01-12 18:59:00,
2013-01-12 14:00:00,58.2,53.4,29.93,SSW,198,10.0,15.0,84,0.00,,SKC,0.00,VWS V14.01,2013-01-12 19:00:00,
2013-01-12 14:04:00,58.2,53.4,29.94,SSW,196,7.0,9.0,84,0.00,,SKC,0.00,VWS V14.01,2013-01-12 19:04:00,
2013-01-12 14:09:00,58.2,53.7,29.94,SW,215,8.0,14.0,85,0.00,,SKC,0.00,VWS V14.01,2013-01-12 19:09:00,
2013-01-12 14:14:00,58.3,53.8,29.94,SW,214,10.0,16.0,85,0.00,,SKC,0.00,VWS V14.01,2013-01-12 19:14:00,
2013-01-12 14:19:00,58.4,53.9,29.94,SSW,204,8.0,12.0,85,0.00,,SKC,0.00,VWS V14.01,2013-01-12 19:19:00,
2013-01-12 14:30:00,58.6,53.8,29.94,SW,225,8.0,20.0,84,0.00,,SKC,0.00,VWS V14.01,2013-01-12 19:30:00,
2013-01-12 14:32:00,58.6,54.0,29.94,SW,214,6.0,19.0,84,0.00,,,0.00,weatherlink.com 1.10,2013-01-12 19:32:00,
2013-01-12 14:47:00,59.0,54.0,29.95,SW,234,7.0,11.0,84,0.00,,,0.00,weatherlink.com 1.10,2013-01-12 19:47:00,
2013-01-12 15:00:00,59.9,54.4,29.95,SW,225,6.0,14.0,82,0.00,,SKC,0.00,VWS V14.01,2013-01-12 20:00:00,
2013-01-12 15:02:00,60.0,55.0,29.95,SW,223,7.0,13.0,82,0.00,,,0.00,weatherlink.com 1.10,2013-01-12 20:02:00,
2013-01-12 15:17:00,59.8,54.0,29.95,SSW,211,4.0,11.0,81,0.00,,,0.00,weatherlink.com 1.10,2013-01-12 20:17:00,
2013-01-12 15:30:00,59.0,53.8,29.95,SSW,202,6.0,13.0,83,0.00,,SKC,0.00,VWS V14.01,2013-01-12 20:30:00,
2013-01-12 15:32:00,59.0,54.0,29.95,SSW,199,5.0,10.0,83,0.00,,,0.00,weatherlink.com 1.10,2013-01-12 20:32:00,
2013-01-12 15:47:00,58.4,53.0,29.94,South,177,6.0,12.0,83,0.00,,,0.00,weatherlink.com 1.10,2013-01-12 20:47:00,
2013-01-12 16:00:00,58.2,53.4,29.94,SSW,202,5.0,12.0,84,0.00,,SKC,0.00,VWS V14.01,2013-01-12 21:00:00,
2013-01-12 16:02:00,58.2,53.0,29.94,SSW,199,5.0,7.0,84,0.00,,,0.00,weatherlink.com 1.10,2013-01-12 21:02:00,
2013-01-12 16:17:00,58.2,53.0,29.93,South,178,1.0,7.0,84,0.00,,,0.00,weatherlink.com 1.10,2013-01-12 21:17:00,
2013-01-12 16:30:00,57.2,53.1,29.93,South,180,3.0,9.0,86,0.00,,SKC,0.00,VWS V14.01,2013-01-12 21:30:00,
2013-01-12 16:32:00,57.1,53.0,29.93,SSE,163,0.0,7.0,86,0.00,,,0.00,weatherlink.com 1.10,2013-01-12 21:32:00,
2013-01-12 16:47:00,56.3,53.0,29.93,SSE,165,0.0,2.0,88,0.00,,,0.00,weatherlink.com 1.10,2013-01-12 21:47:00,
2013-01-12 17:02:00,55.9,52.0,29.93,SSE,165,0.0,2.0,88,0.00,,,0.00,weatherlink.com 1.10,2013-01-12 22:02:00,
2013-01-12 17:17:00,55.0,52.0,29.93,SSE,165,0.0,2.0,88,0.00,,,0.00,weatherlink.com 1.10,2013-01-12 22:17:00,
2013-01-12 17:23:00,54.9,51.7,29.93,SSE,165,0.0,0.0,89,0.00,,SKC,0.00,VWS V14.01,2013-01-12 22:23:00,
2013-01-12 17:28:00,54.7,51.5,29.92,SSE,165,0.0,0.0,89,0.00,,SKC,0.00,VWS V14.01,2013-01-12 22:28:00,
2013-01-12 17:33:00,54.6,51.4,29.92,SSE,165,0.0,1.0,89,0.00,,SKC,0.00,VWS V14.01,2013-01-12 22:33:00,
2013-01-12 17:38:00,54.4,51.2,29.92,SSE,165,0.0,1.0,89,0.00,,SKC,0.00,VWS V14.01,2013-01-12 22:38:00,
2013-01-12 17:43:00,54.2,51.3,29.91,ESE,113,4.0,4.0,90,0.00,,SKC,0.00,VWS V14.01,2013-01-12 22:43:00,
2013-01-12 17:48:00,54.0,51.1,29.91,ESE,105,0.0,2.0,90,0.00,,SKC,0.00,VWS V14.01,2013-01-12 22:48:00,
2013-01-12 17:53:00,53.9,51.0,29.91,ESE,105,0.0,0.0,90,0.00,,SKC,0.00,VWS V14.01,2013-01-12 22:53:00,
2013-01-12 17:58:00,53.9,51.0,29.91,ESE,105,0.0,1.0,90,0.00,,SKC,0.00,VWS V14.01,2013-01-12 22:58:00,
2013-01-12 18:03:00,53.9,51.3,29.91,ESE,105,0.0,0.0,91,0.00,,SKC,0.00,VWS V14.01,2013-01-12 23:03:00,
2013-01-12 18:08:00,53.8,51.2,29.91,ESE,105,0.0,0.0,91,0.00,,SKC,0.00,VWS V14.01,2013-01-12 23:08:00,
2013-01-12 18:13:00,53.9,51.3,29.92,ESE,105,0.0,0.0,91,0.00,,SKC,0.00,VWS V14.01,2013-01-12 23:13:00,
2013-01-12 18:18:00,53.9,51.3,29.92,ESE,105,0.0,0.0,91,0.00,,SKC,0.00,VWS V14.01,2013-01-12 23:18:00,
2013-01-12 18:23:00,53.7,51.1,29.92,ESE,105,0.0,0.0,91,0.00,,SKC,0.00,VWS V14.01,2013-01-12 23:23:00,
2013-01-12 18:28:00,53.6,51.0,29.92,ESE,105,0.0,0.0,91,0.00,,SKC,0.00,VWS V14.01,2013-01-12 23:28:00,
2013-01-12 18:33:00,53.3,50.7,29.91,ESE,105,0.0,0.0,91,0.00,,SKC,0.00,VWS V14.01,2013-01-12 23:33:00,
2013-01-12 18:38:00,53.2,50.7,29.92,ESE,105,0.0,0.0,91,0.00,,SKC,0.00,VWS V14.01,2013-01-12 23:38:00,
2013-01-12 18:43:00,53.2,50.7,29.91,ESE,105,0.0,0.0,91,0.00,,SKC,0.00,VWS V14.01,2013-01-12 23:43:00,
2013-01-12 18:48:00,52.7,50.2,29.90,ESE,105,0.0,0.0,91,0.00,,SKC,0.00,VWS V14.01,2013-01-12 23:48:00,
2013-01-12 18:53:00,52.4,49.8,29.90,ESE,105,0.0,0.0,91,0.00,,SKC,0.00,VWS V14.01,2013-01-12 23:53:00,
2013-01-12 18:59:00,52.4,49.8,29.90,ESE,105,0.0,1.0,91,0.00,,SKC,0.00,VWS V14.01,2013-01-12 23:59:00,
2013-01-12 19:04:00,52.4,50.2,29.90,ESE,105,0.0,0.0,92,0.00,,SKC,0.00,VWS V14.01,2013-01-13 00:04:00,
2013-01-12 19:09:00,52.5,50.2,29.90,ESE,105,0.0,0.0,92,0.00,,SKC,0.00,VWS V14.01,2013-01-13 00:09:00,
2013-01-12 19:18:00,52.6,50.3,29.90,ESE,105,0.0,0.0,92,0.00,,SKC,0.00,VWS V14.01,2013-01-13 00:18:00,
2013-01-12 19:23:00,52.8,50.5,29.89,ESE,105,0.0,0.0,92,0.00,,SKC,0.00,VWS V14.01,2013-01-13 00:23:00,
2013-01-12 19:28:00,52.7,50.5,29.89,ESE,105,0.0,0.0,92,0.00,,SKC,0.00,VWS V14.01,2013-01-13 00:28:00,
2013-01-12 19:33:00,52.8,50.5,29.89,ESE,110,1.0,1.0,92,0.00,,SKC,0.00,VWS V14.01,2013-01-13 00:33:00,
2013-01-12 19:38:00,52.8,50.5,29.89,ESE,111,0.0,1.0,92,0.00,,SKC,0.00,VWS V14.01,2013-01-13 00:38:00,
2013-01-12 19:43:00,52.6,50.3,29.89,ESE,111,0.0,0.0,92,0.00,,SKC,0.00,VWS V14.01,2013-01-13 00:43:00,
2013-01-12 19:48:00,52.5,50.5,29.88,ESE,111,0.0,0.0,93,0.00,,SKC,0.00,VWS V14.01,2013-01-13 00:48:00,
2013-01-12 19:53:00,52.5,50.5,29.89,ESE,111,0.0,0.0,93,0.00,,SKC,0.00,VWS V14.01,2013-01-13 00:53:00,
2013-01-12 19:58:00,52.2,50.0,29.88,ENE,67,1.0,1.0,92,0.00,,SKC,0.00,VWS V14.01,2013-01-13 00:58:00,
2013-01-12 20:03:00,51.6,49.4,29.87,NE,43,1.0,1.0,92,0.00,,SKC,0.00,VWS V14.01,2013-01-13 01:03:00,
2013-01-12 20:08:00,51.4,49.2,29.87,NE,43,0.0,0.0,92,0.00,,SKC,0.00,VWS V14.01,2013-01-13 01:08:00,
2013-01-12 20:13:00,51.4,49.2,29.88,NE,43,0.0,0.0,92,0.00,,SKC,0.00,VWS V14.01,2013-01-13 01:13:00,
2013-01-12 20:18:00,51.7,49.8,29.87,NE,43,1.0,1.0,93,0.00,,SKC,0.00,VWS V14.01,2013-01-13 01:18:00,
2013-01-12 20:23:00,51.7,49.8,29.87,NE,43,0.0,0.0,93,0.00,,SKC,0.00,VWS V14.01,2013-01-13 01:23:00,
2013-01-12 20:28:00,51.7,49.8,29.86,NE,43,1.0,1.0,93,0.00,,SKC,0.00,VWS V14.01,2013-01-13 01:28:00,
2013-01-12 20:33:00,51.4,49.2,29.86,NE,43,0.0,0.0,92,0.00,,SKC,0.00,VWS V14.01,2013-01-13 01:33:00,
2013-01-12 20:38:00,51.1,48.9,29.86,NE,43,0.0,0.0,92,0.00,,SKC,0.00,VWS V14.01,2013-01-13 01:38:00,
2013-01-12 20:43:00,51.1,49.2,29.86,NE,43,0.0,0.0,93,0.00,,SKC,0.00,VWS V14.01,2013-01-13 01:43:00,
2013-01-12 20:48:00,51.1,49.2,29.86,NE,43,0.0,2.0,93,0.00,,SKC,0.00,VWS V14.01,2013-01-13 01:48:00,
2013-01-12 20:53:00,51.0,49.0,29.86,NE,43,0.0,0.0,93,0.00,,SKC,0.00,VWS V14.01,2013-01-13 01:53:00,
2013-01-12 20:58:00,51.1,49.2,29.87,NE,43,0.0,0.0,93,0.00,,SKC,0.00,VWS V14.01,2013-01-13 01:58:00,
2013-01-12 21:03:00,51.6,49.7,29.87,NE,43,0.0,0.0,93,0.00,,SKC,0.00,VWS V14.01,2013-01-13 02:03:00,
2013-01-12 21:08:00,51.9,49.9,29.87,NE,43,0.0,0.0,93,0.00,,SKC,0.00,VWS V14.01,2013-01-13 02:08:00,
2013-01-12 21:13:00,51.9,49.9,29.87,NE,43,0.0,0.0,93,0.00,,SKC,0.00,VWS V14.01,2013-01-13 02:13:00,
2013-01-12 21:18:00,51.9,49.9,29.88,NE,43,0.0,0.0,93,0.01,,SKC,0.01,VWS V14.01,2013-01-13 02:18:00,
2013-01-12 21:23:00,51.7,49.8,29.87,NE,43,0.0,1.0,93,0.04,,SKC,0.04,VWS V14.01,2013-01-13 02:23:00,
2013-01-12 21:28:00,51.5,49.5,29.86,NNW,327,3.0,4.0,93,0.06,,SKC,0.06,VWS V14.01,2013-01-13 02:28:00,
2013-01-12 21:33:00,51.1,49.2,29.86,NNW,341,3.0,3.0,93,0.08,,SKC,0.08,VWS V14.01,2013-01-13 02:33:00,
2013-01-12 21:38:00,51.1,49.2,29.86,NNW,331,2.0,2.0,93,0.08,,SKC,0.08,VWS V14.01,2013-01-13 02:38:00,
2013-01-12 21:43:00,51.4,49.7,29.85,NW,309,2.0,3.0,94,0.09,,SKC,0.09,VWS V14.01,2013-01-13 02:43:00,
2013-01-12 21:48:00,51.3,49.3,29.85,NW,324,3.0,3.0,93,0.11,,SKC,0.11,VWS V14.01,2013-01-13 02:48:00,
2013-01-12 21:53:00,51.4,49.5,29.84,NNW,332,2.0,3.0,93,0.12,,SKC,0.12,VWS V14.01,2013-01-13 02:53:00,
2013-01-12 21:59:00,51.7,50.0,29.84,North,10,2.0,4.0,94,0.14,,SKC,0.14,VWS V14.01,2013-01-13 02:59:00,
2013-01-12 22:04:00,51.9,50.2,29.84,NE,44,3.0,3.0,94,0.15,,SKC,0.15,VWS V14.01,2013-01-13 03:04:00,
2013-01-12 22:09:00,52.0,50.3,29.83,NE,36,4.0,5.0,94,0.16,,SKC,0.16,VWS V14.01,2013-01-13 03:09:00,
2013-01-12 22:14:00,52.0,50.3,29.82,North,11,3.0,5.0,94,0.18,,SKC,0.18,VWS V14.01,2013-01-13 03:14:00,
2013-01-12 22:19:00,52.1,50.4,29.82,NE,36,2.0,4.0,94,0.19,,SKC,0.19,VWS V14.01,2013-01-13 03:19:00,
2013-01-12 22:24:00,52.2,50.5,29.82,NE,37,3.0,4.0,94,0.20,,SKC,0.20,VWS V14.01,2013-01-13 03:24:00,
2013-01-12 22:29:00,52.4,50.7,29.82,NE,34,0.0,4.0,94,0.22,,SKC,0.22,VWS V14.01,2013-01-13 03:29:00,
2013-01-12 22:34:00,52.6,50.9,29.81,NE,44,3.0,4.0,94,0.17,,SKC,0.24,VWS V14.01,2013-01-13 03:34:00,
2013-01-12 22:39:00,52.6,50.9,29.81,NE,55,2.0,4.0,94,0.19,,SKC,0.26,VWS V14.01,2013-01-13 03:39:00,
2013-01-12 22:44:00,52.6,50.9,29.79,NE,35,7.0,8.0,94,0.21,,SKC,0.28,VWS V14.01,2013-01-13 03:44:00,
2013-01-12 22:49:00,52.7,51.0,29.79,NNE,26,6.0,7.0,94,0.24,,SKC,0.31,VWS V14.01,2013-01-13 03:49:00,
2013-01-12 22:54:00,52.6,50.9,29.80,NE,49,3.0,7.0,94,0.25,,SKC,0.32,VWS V14.01,2013-01-13 03:54:00,
2013-01-12 22:59:00,52.5,50.8,29.78,North,5,3.0,6.0,94,0.26,,SKC,0.33,VWS V14.01,2013-01-13 03:59:00,
2013-01-12 23:04:00,52.6,50.9,29.77,NE,55,5.0,6.0,94,0.20,,SKC,0.35,VWS V14.01,2013-01-13 04:04:00,
2013-01-12 23:09:00,52.5,51.1,29.74,NNE,22,5.0,11.0,95,0.21,,SKC,0.36,VWS V14.01,2013-01-13 04:09:00,
2013-01-12 23:14:00,52.6,51.2,29.76,NE,40,4.0,5.0,95,0.24,,SKC,0.39,VWS V14.01,2013-01-13 04:14:00,
2013-01-12 23:19:00,52.6,51.2,29.75,NNE,19,4.0,9.0,95,0.25,,SKC,0.40,VWS V14.01,2013-01-13 04:19:00,
2013-01-12 23:24:00,52.6,51.2,29.74,NNE,21,3.0,9.0,95,0.25,,SKC,0.40,VWS V14.01,2013-01-13 04:24:00,
2013-01-12 23:29:00,52.7,51.3,29.75,NE,37,2.0,8.0,95,0.26,,SKC,0.41,VWS V14.01,2013-01-13 04:29:00,
2013-01-12 23:34:00,52.7,51.3,29.75,NE,43,4.0,5.0,95,0.19,,SKC,0.42,VWS V14.01,2013-01-13 04:34:00,
2013-01-12 23:39:00,52.6,51.2,29.74,NE,47,5.0,8.0,95,0.21,,SKC,0.44,VWS V14.01,2013-01-13 04:39:00,
2013-01-12 23:45:00,52.6,51.2,29.74,NNE,20,5.0,9.0,95,0.23,,SKC,0.46,VWS V14.01,2013-01-13 04:45:00,
2013-01-12 23:50:00,52.7,51.3,29.72,NE,51,11.0,11.0,95,0.23,,SKC,0.46,VWS V14.01,2013-01-13 04:50:00,
2013-01-12 23:55:00,52.6,51.2,29.72,ENE,58,8.0,8.0,95,0.24,,SKC,0.47,VWS V14.01,2013-01-13 04:55:00,